This is the latest recevied weather packets stored in our database for station/object AD8IZ-13. If no packets are shown the sender has not sent any weather packets the latest 10 day(s).
| Time | Temp. | Humidity | Pressure | Rain* | Wind** | Luminosity | Snow |
|---|---|---|---|---|---|---|---|
| 1777551321 | 7.22° C | 90% | 1013.7 hPa | 0 mm | - | 49 W/m² | - |
| 1777550118 | 7.22° C | 90% | 1013.5 hPa | 0 mm | - | 31 W/m² | - |
| 1777548317 | 7.22° C | 89% | 1013.4 hPa | 0 mm | - | 27 W/m² | - |
| 1777547723 | 7.22° C | 89% | 1013.3 hPa | 0 mm | - | 20 W/m² | - |
| 1777545918 | 6.67° C | 91% | 1013.3 hPa | 0 mm | - | 4 W/m² | - |
| 1777545318 | 6.67° C | 91% | 1013.2 hPa | 0 mm | - | 1 W/m² | - |
| 1777544719 | 6.67° C | 92% | 1013.1 hPa | 0 mm | - | 0 W/m² | - |
| 1777544119 | 6.67° C | 92% | 1013.1 hPa | 0 mm | - | 0 W/m² | - |
| 1777543518 | 6.67° C | 93% | 1013.1 hPa | 0 mm | - | 0 W/m² | - |
| 1777542919 | 6.67° C | 93% | 1013.1 hPa | 0 mm | - | 0 W/m² | - |
| 1777542321 | 6.67° C | 93% | 1013.1 hPa | 0 mm | - | 0 W/m² | - |
| 1777541719 | 6.67° C | 93% | 1013.1 hPa | 0 mm | - | 0 W/m² | - |
| 1777541120 | 6.11° C | 94% | 1013.1 hPa | 0 mm | - | 0 W/m² | - |
| 1777540518 | 6.11° C | 94% | 1013.1 hPa | 0 mm | - | 0 W/m² | - |
| 1777539920 | 6.11° C | 94% | 1013.1 hPa | 0 mm | - | 0 W/m² | - |
| 1777539321 | 6.11° C | 93% | 1013.1 hPa | 0 mm | - | 0 W/m² | - |
| 1777538721 | 6.67° C | 92% | 1013.1 hPa | 0 mm | - | 0 W/m² | - |
| 1777538120 | 6.67° C | 92% | 1013.2 hPa | 0 mm | - | 0 W/m² | - |
| 1777537518 | 7.22° C | 92% | 1013.2 hPa | 0 mm | - | 0 W/m² | - |
| 1777536918 | 7.22° C | 92% | 1013.1 hPa | 0 mm | - | 0 W/m² | - |
| 1777536318 | 7.22° C | 92% | 1013.1 hPa | 0.25 mm | - | 0 W/m² | - |
| 1777535718 | 7.22° C | 93% | 1013.1 hPa | 0.25 mm | - | 0 W/m² | - |
| 1777535119 | 7.22° C | 92% | 1013 hPa | 0.25 mm | - | 0 W/m² | - |
| 1777534518 | 7.22° C | 92% | 1012.9 hPa | 0.25 mm | - | 0 W/m² | - |
| 1777533921 | 7.78° C | 92% | 1012.9 hPa | 0.25 mm | - | 0 W/m² | - |
* Rain latest hour (hover to see other rain measurements)
** Current wind speed in m/s (hover to see current wind gust speed)